DW1234 Weather Reports


time (UTC)temp
C
wind
direction
speed
KPH
gust
KPH
rain 1hr
cm
rain 24hr
cm
rain mn
cm
humidity
%
barometer
mb
20260506201237 16 291 19.3 32.2 0.00 0.00 0.00 31 1018.6
20260506200806 16 332 19.3 29.0 0.00 0.00 0.00 29 1018.6
20260506200227 17 335 11.3 30.6 0.00 0.00 0.00 34 1018.6
20260506200019 16 344 12.9 30.6 0.00 0.00 0.00 37 1018.8
20260506195801 15 321 11.3 30.6 0.00 0.00 0.00 35 1018.6
20260506195225 15 279 14.5 27.4 0.00 0.00 0.00 35 1018.7
20260506194732 15 333 16.1 32.2 0.00 0.00 0.00 31 1018.8
20260506194505 15 302 14.5 32.2 0.00 0.00 0.00 32 1018.9
20260506194245 16 293 17.7 32.2 0.00 0.00 0.00 31 1018.8
20260506193729 15 305 20.9 33.8 0.00 0.00 0.00 34 1018.8
20260506193300 15 346 19.3 33.8 0.00 0.00 0.00 31 1018.8
20260506193040 15 315 20.9 33.8 0.00 0.00 0.00 32 1019.0
20260506192723 15 271 12.9 29.0 0.00 0.00 0.00 34 1018.7
20260506192236 16 289 16.1 32.2 0.00 0.00 0.00 32 1018.8
20260506191749 16 312 20.9 32.2 0.00 0.00 0.00 31 1018.8
20260506191551 16 286 24.1 32.2 0.00 0.00 0.00 32 1018.9
20260506191231 15 311 16.1 37.0 0.00 0.00 0.00 33 1018.7
20260506190744 16 278 19.3 40.2 0.00 0.00 0.00 30 1018.8
20260506190235 16 267 25.7 40.2 0.00 0.00 0.00 32 1018.8
20260506190033 16 287 22.5 38.6 0.00 0.00 0.00 33 1019.0
20260506185745 16 248 24.1 38.6 0.00 0.00 0.00 33 1018.8
20260506185227 15 316 22.5 33.8 0.00 0.00 0.00 31 1018.9
20260506184740 14 340 22.5 33.8 0.00 0.00 0.00 32 1019.0
20260506184535 14 5 17.7 29.0 0.00 0.00 0.00 33 1019.2
20260506184225 15 316 16.1 29.0 0.00 0.00 0.00 32 1019.2
20260506183734 15 321 12.9 27.4 0.00 0.00 0.00 36 1019.2
20260506183239 14 288 11.3 32.2 0.00 0.00 0.00 34 1019.3
20260506183044 14 336 11.3 32.2 0.00 0.00 0.00 33 1019.4
20260506182750 15 323 14.5 32.2 0.00 0.00 0.00 35 1019.3
20260506182231 15 345 16.1 24.1 0.00 0.00 0.00 34 1019.3
20260506181743 15 317 8.0 29.0 0.00 0.00 0.00 39 1019.3
20260506181547 14 355 11.3 29.0 0.00 0.00 0.00 39 1019.6
20260506181228 15 355 19.3 29.0 0.00 0.00 0.00 32 1019.4
20260506180800 16 344 19.3 29.0 0.00 0.00 0.00 34 1019.4
20260506180250 15 331 14.5 22.5 0.00 0.00 0.00 39 1019.3
20260506180045 15 250 12.9 27.4 0.00 0.00 0.00 33 1019.6
20260506175739 16 297 11.3 29.0 0.00 0.00 0.00 38 1019.5
20260506175249 15 284 19.3 35.4 0.00 0.00 0.00 34 1019.7
20260506174732 15 288 20.9 35.4 0.00 0.00 0.00 35 1019.6
20260506174549 15 265 14.5 29.0 0.00 0.00 0.00 37 1019.9
20260506174306 15 249 14.5 33.8 0.00 0.00 0.00 37 1019.7
20260506173727 15 251 22.5 33.8 0.00 0.00 0.00 33 1019.8
20260506173259 15 330 20.9 40.2 0.00 0.00 0.00 35 1019.9
20260506173002 15 296 22.5 40.2 0.00 0.00 0.00 34 1020.1
20260506172745 15 298 20.9 40.2 0.00 0.00 0.00 33 1019.9
20260506172226 15 282 20.9 32.2 0.00 0.00 0.00 35 1019.9
20260506171739 15 322 11.3 24.1 0.00 0.00 0.00 38 1020.1
20260506171508 14 309 16.1 24.1 0.00 0.00 0.00 39 1020.3
20260506171254 13 338 9.7 17.7 0.00 0.00 0.00 42 1020.2
20260506170745 13 265 11.3 22.5 0.00 0.00 0.00 38 1020.2
20260506170228 13 292 11.3 30.6 0.00 0.00 0.00 37 1020.2
20260506170048 13 347 11.3 30.6 0.00 0.00 0.00 43 1020.3
20260506165739 13 329 11.3 30.6 0.00 0.00 0.00 36 1020.2
20260506165221 14 333 20.9 30.6 0.00 0.00 0.00 38 1020.2
20260506164728 13 315 14.5 29.0 0.00 0.00 0.00 37 1020.3
20260506164559 13 328 12.9 30.6 0.00 0.00 0.00 39 1020.4
20260506164242 13 312 17.7 32.2 0.00 0.00 0.00 38 1020.4
20260506163723 13 320 24.1 32.2 0.00 0.00 0.00 35 1020.3
20260506163237 13 288 20.9 30.6 0.00 0.00 0.00 37 1020.3
20260506163008 13 360 12.9 27.4 0.00 0.00 0.00 38 1020.5
20260506162747 13 348 14.5 32.2 0.00 0.00 0.00 36 1020.3
20260506162232 13 253 14.5 32.2 0.00 0.00 0.00 38 1020.4
20260506161743 13 293 16.1 29.0 0.00 0.00 0.00 38 1020.4
20260506161511 13 294 19.3 29.0 0.00 0.00 0.00 39 1020.5
20260506161226 13 314 17.7 29.0 0.00 0.00 0.00 38 1020.3
20260506160732 12 253 14.5 27.4 0.00 0.00 0.00 39 1020.3
20260506160246 12 306 17.7 25.7 0.00 0.00 0.00 37 1020.2
20260506160015 12 285 14.5 25.7 0.00 0.00 0.00 39 1020.5
20260506155730 12 355 14.5 25.7 0.00 0.00 0.00 38 1020.4
20260506155244 12 309 14.5 20.9 0.00 0.00 0.00 39 1020.2
20260506154726 12 323 6.4 41.8 0.00 0.00 0.00 37 1020.2
20260506154512 12 288 12.9 41.8 0.00 0.00 0.00 39 1020.3
20260506154300 12 293 16.1 41.8 0.00 0.00 0.00 37 1020.2
20260506153723 13 325 11.3 24.1 0.00 0.00 0.00 37 1020.2
20260506153230 12 307 9.7 24.1 0.00 0.00 0.00 40 1020.2
20260506153053 12 302 14.5 30.6 0.00 0.00 0.00 37 1020.4
20260506152743 13 348 14.5 30.6 0.00 0.00 0.00 39 1020.1
20260506152227 13 290 14.5 24.1 0.00 0.00 0.00 39 1020.1
20260506151758 13 295 12.9 22.5 0.00 0.00 0.00 40 1020.0
20260506151538 12 336 14.5 22.5 0.00 0.00 0.00 40 1020.3
20260506151311 13 315 4.8 20.9 0.00 0.00 0.00 41 1020.1
20260506150731 12 303 12.9 20.9 0.00 0.00 0.00 39 1020.1
20260506150241 12 336 8.0 20.9 0.00 0.00 0.00 41 1020.2
20260506150016 11 336 4.8 20.9 0.00 0.00 0.00 44 1020.4
20260506145747 12 324 12.9 20.9 0.00 0.00 0.00 43 1020.2
20260506145237 11 323 8.0 17.7 0.00 0.00 0.00 44 1020.3
20260506144721 12 313 11.3 16.1 0.00 0.00 0.00 45 1020.2
20260506144504 11 329 6.4 16.1 0.00 0.00 0.00 42 1020.5
20260506144236 11 355 8.0 16.1 0.00 0.00 0.00 43 1020.2
20260506143745 12 355 6.4 16.1 0.00 0.00 0.00 45 1020.3
20260506143255 11 340 9.7 12.9 0.00 0.00 0.00 44 1020.2
20260506143033 11 336 6.4 12.9 0.00 0.00 0.00 47 1020.4
20260506142743 11 329 6.4 19.3 0.00 0.00 0.00 43 1020.2
20260506142226 11 323 11.3 19.3 0.00 0.00 0.00 44 1020.2
20260506141738 10 347 8.0 16.1 0.00 0.00 0.00 43 1020.1
20260506141532 10 5 9.7 16.1 0.00 0.00 0.00 44 1020.4
20260506141312 11 328 8.0 16.1 0.00 0.00 0.00 43 1020.2
20260506140733 10 342 9.7 16.1 0.00 0.00 0.00 44 1020.1
20260506140244 11 314 4.8 16.1 0.00 0.00 0.00 50 1020.1
20260506140018 10 316 6.4 16.1 0.00 0.00 0.00 51 1020.3
20260506135726 10 360 9.7 16.1 0.00 0.00 0.00 47 1020.0
20260506135238 10 355 11.3 16.1 0.00 0.00 0.00 47 1019.8
20260506134746 9 5 9.7 16.1 0.00 0.00 0.00 48 1019.8
20260506134514 9 5 12.9 16.1 0.00 0.00 0.00 48 1020.1
20260506134230 9 22 9.7 16.1 0.00 0.00 0.00 48 1019.7
20260506133740 9 5 9.7 14.5 0.00 0.00 0.00 48 1019.7
20260506133223 9 342 4.8 12.9 0.00 0.00 0.00 52 1019.7
20260506133006 8 355 3.2 12.9 0.00 0.00 0.00 53 1020.0
20260506132732 8 321 6.4 12.9 0.00 0.00 0.00 54 1019.7
20260506132242 8 5 8.0 12.9 0.00 0.00 0.00 51 1019.6
20260506131723 8 298 6.4 14.5 0.00 0.00 0.00 53 1019.6
20260506131548 8 360 6.4 14.5 0.00 0.00 0.00 55 1019.8
20260506131233 8 343 8.0 14.5 0.00 0.00 0.00 52 1019.5
20260506130744 8 350 6.4 12.9 0.00 0.00 0.00 54 1019.4
20260506130228 7 321 4.8 14.5 0.00 0.00 0.00 57 1019.4
20260506130050 7 324 8.0 14.5 0.00 0.00 0.00 56 1019.6
20260506125739 7 325 9.7 14.5 0.00 0.00 0.00 55 1019.3
20260506125222 7 310 9.7 14.5 0.00 0.00 0.00 56 1019.4
20260506124754 6 315 8.0 14.5 0.00 0.00 0.00 58 1019.3
20260506124534 6 321 6.4 9.7 0.00 0.00 0.00 59 1019.5
20260506124246 6 320 4.8 12.9 0.00 0.00 0.00 59 1019.1
20260506123728 6 329 6.4 12.9 0.00 0.00 0.00 59 1019.0
20260506123256 6 302 6.4 12.9 0.00 0.00 0.00 59 1018.9
20260506123006 5 309 4.8 12.9 0.00 0.00 0.00 59 1019.1
20260506122748 6 313 8.0 12.9 0.00 0.00 0.00 59 1018.9
20260506122227 5 323 4.8 8.0 0.00 0.00 0.00 60 1018.8
20260506121737 5 323 3.2 6.4 0.00 0.00 0.00 59 1018.6
20260506121556 5 323 3.2 6.4 0.00 0.00 0.00 59 1018.8
20260506121249 5 323 4.8 6.4 0.00 0.00 0.00 59 1018.6
20260506120730 5 323 3.2 6.4 0.00 0.00 0.00 59 1018.5
20260506120243 5 348 3.2 6.4 0.00 0.00 0.00 59 1018.5
20260506120039 4 347 3.2 6.4 0.00 0.00 0.00 59 1018.7
20260506115730 4 348 4.8 9.7 0.00 0.00 0.00 59 1018.4
20260506115240 4 330 4.8 9.7 0.00 0.00 0.00 58 1018.4
20260506114725 4 317 6.4 8.0 0.00 0.00 0.00 58 1018.3
20260506114540 4 327 4.8 8.0 0.00 0.00 0.00 58 1018.4
20260506114239 5 330 4.8 8.0 0.00 0.00 0.00 58 1018.1
20260506113749 5 325 6.4 8.0 0.00 0.00 0.00 58 1018.1
20260506113242 5 318 4.8 8.0 0.00 0.00 0.00 58 1018.1
20260506113022 4 319 4.8 8.0 0.00 0.00 0.00 58 1018.3
20260506112724 5 315 4.8 8.0 0.00 0.00 0.00 58 1018.2
20260506112231 5 317 4.8 8.0 0.00 0.00 0.00 57 1018.1
20260506111742 5 325 4.8 6.4 0.00 0.00 0.00 57 1018.1
20260506111528 5 314 3.2 6.4 0.00 0.00 0.00 57 1018.3
20260506111254 5 311 4.8 6.4 0.00 0.00 0.00 57 1018.1
20260506110723 5 315 4.8 8.0 0.00 0.00 0.00 57 1018.0
20260506110234 5 315 4.8 8.0 0.00 0.00 0.00 56 1017.9
20260506110052 5 315 4.8 8.0 0.00 0.00 0.00 56 1018.1
20260506105745 5 318 4.8 8.0 0.00 0.00 0.00 56 1018.0
20260506105226 5 315 4.8 8.0 0.00 0.00 0.00 55 1018.0
20260506104734 5 316 6.4 8.0 0.00 0.00 0.00 54 1018.0
20260506104600 5 326 4.8 6.4 0.00 0.00 0.00 54 1018.2
20260506104248 5 330 4.8 6.4 0.00 0.00 0.00 54 1018.0
20260506103730 5 328 4.8 6.4 0.00 0.00 0.00 53 1018.0
20260506103240 5 321 4.8 9.7 0.00 0.00 0.00 53 1017.9
20260506103058 5 327 4.8 9.7 0.00 0.00 0.00 53 1018.1
20260506102724 5 319 6.4 9.7 0.00 0.00 0.00 53 1017.9
20260506102235 5 329 8.0 9.7 0.00 0.00 0.00 53 1017.9
20260506101745 5 327 6.4 9.7 0.00 0.00 0.00 53 1017.9
20260506101558 5 317 6.4 9.7 0.00 0.00 0.00 53 1017.9
20260506101229 6 319 6.4 9.7 0.00 0.00 0.00 52 1017.8
20260506100735 6 323 6.4 9.7 0.00 0.00 0.00 52 1017.7
20260506100245 6 325 6.4 9.7 0.00 0.00 0.00 52 1017.7
20260506100100 5 327 6.4 11.3 0.00 0.00 0.00 52 1017.9
20260506095728 6 325 6.4 8.0 0.00 0.00 0.00 51 1017.7
20260506095300 6 317 6.4 8.0 0.00 0.00 0.00 51 1017.6
20260506094749 6 332 6.4 8.0 0.00 0.00 0.00 50 1017.6
20260506094536 6 332 4.8 8.0 0.00 0.00 0.00 50 1017.7
20260506094234 6 339 4.8 8.0 0.00 0.00 0.00 50 1017.5
20260506093744 6 336 6.4 9.7 0.00 0.00 0.00 50 1017.5
20260506093310 6 329 6.4 9.7 0.00 0.00 0.00 49 1017.5
20260506093047 6 317 4.8 8.0 0.00 0.00 0.00 49 1017.7
20260506092732 6 324 6.4 8.0 0.00 0.00 0.00 49 1017.4
20260506092306 6 327 4.8 6.4 0.00 0.00 0.00 49 1017.4
20260506091725 6 329 4.8 6.4 0.00 0.00 0.00 49 1017.3
20260506091527 6 333 4.8 6.4 0.00 0.00 0.00 49 1017.4
20260506091237 6 336 3.2 8.0 0.00 0.00 0.00 49 1017.3
20260506090748 6 336 4.8 9.7 0.00 0.03 0.00 49 1017.3
20260506090231 7 340 4.8 12.9 0.00 0.03 0.00 48 1017.3
20260506090031 6 344 6.4 12.9 0.00 0.03 0.00 48 1017.4
20260506085738 7 351 6.4 12.9 0.00 0.03 0.00 48 1017.2
20260506085249 7 336 6.4 9.7 0.00 0.03 0.00 48 1017.2
20260506084739 7 345 4.8 8.0 0.00 0.03 0.00 48 1017.2
20260506084511 6 341 4.8 8.0 0.00 0.03 0.00 48 1017.3
20260506084310 7 348 4.8 8.0 0.00 0.03 0.00 48 1017.1
20260506083730 7 344 4.8 8.0 0.00 0.03 0.00 48 1017.0
20260506083242 7 338 4.8 8.0 0.00 0.03 0.00 48 1017.0
20260506083050 7 342 4.8 8.0 0.00 0.03 0.00 48 1017.2
20260506082723 7 333 4.8 8.0 0.00 0.03 0.00 48 1016.9
20260506082250 7 348 6.4 8.0 0.00 0.03 0.00 47 1016.9
20260506081741 7 341 6.4 8.0 0.00 0.03 0.00 47 1016.9
20260506081527 7 344 4.8 8.0 0.00 0.03 0.00 47 1017.0
20260506081254 7 343 4.8 8.0 0.00 0.03 0.00 47 1016.9
20260506080740 7 335 4.8 9.7 0.00 0.03 0.00 47 1016.9
20260506080222 7 336 4.8 8.0 0.00 0.03 0.00 46 1016.8
20260506073239 7 360 6.4 9.7 0.00 0.03 0.00 45 1016.5
20260506073023 7 350 4.8 8.0 0.00 0.03 0.00 45 1016.7
20260506072749 7 355 6.4 8.0 0.00 0.03 0.00 45 1016.6
20260506072240 8 348 6.4 9.7 0.00 0.03 0.00 45 1016.6
20260506071747 8 348 6.4 9.7 0.00 0.03 0.00 45 1016.6
20260506071505 7 355 6.4 9.7 0.00 0.03 0.00 45 1016.7
20260506071233 8 5 6.4 14.5 0.00 0.03 0.00 45 1016.6
20260506070743 8 355 6.4 14.5 0.00 0.03 0.00 45 1016.7
20260506070226 8 360 8.0 9.7 0.00 0.03 0.00 44 1016.6
20260506062230 8 355 6.4 12.9 0.00 0.03 0.00 43 1016.7
20260506061742 8 5 9.7 14.5 0.00 0.03 0.00 42 1016.6
20260506061535 8 5 6.4 14.5 0.00 0.03 0.00 42 1016.7
20260506061228 8 339 8.0 14.5 0.00 0.03 0.00 42 1016.7
20260506060740 8 329 8.0 14.5 0.00 0.03 0.00 42 1016.6
20260506060222 8 343 9.7 16.1 0.00 0.03 0.00 41 1016.5
20260506051240 9 355 9.7 19.3 0.00 0.03 0.00 40 1016.1
20260506050749 9 351 11.3 19.3 0.00 0.03 0.03 41 1015.9
20260506050233 9 328 11.3 17.7 0.00 0.03 0.03 41 1015.9
20260506050107 9 346 9.7 17.7 0.00 0.03 0.03 40 1016.0
20260506044733 10 344 9.7 16.1 0.00 0.03 0.03 40 1015.8
20260506044510 9 355 8.0 16.1 0.00 0.03 0.03 40 1015.7
20260506044242 10 355 9.7 16.1 0.00 0.03 0.03 40 1015.6
20260506043724 10 355 9.7 14.5 0.00 0.03 0.03 40 1015.7
20260506043235 10 344 12.9 17.7 0.00 0.03 0.03 40 1015.7
20260506043016 9 360 9.7 17.7 0.00 0.03 0.03 40 1015.7
20260506042748 10 360 12.9 17.7 0.00 0.03 0.03 40 1015.7
20260506042232 10 350 11.3 16.1 0.00 0.03 0.03 40 1015.6
20260506041744 10 348 8.0 14.5 0.00 0.03 0.03 40 1015.6
20260506041516 10 343 8.0 14.5 0.00 0.03 0.03 41 1015.6
20260506041229 10 347 9.7 14.5 0.00 0.03 0.03 40 1015.5
20260506040740 10 360 8.0 14.5 0.00 0.03 0.03 40 1015.4
20260506040247 10 342 8.0 14.5 0.00 0.03 0.03 40 1015.4
20260506040033 10 351 8.0 16.1 0.00 0.03 0.03 40 1015.4
20260506035731 10 355 8.0 16.1 0.00 0.03 0.03 40 1015.4
20260506035306 10 348 9.7 16.1 0.00 0.03 0.03 39 1015.4
20260506034725 10 333 11.3 16.1 0.00 0.03 0.03 39 1015.5
20260506034556 10 360 9.7 17.7 0.00 0.03 0.03 39 1015.5
20260506034237 10 350 9.7 17.7 0.00 0.03 0.03 39 1015.5
20260506033746 10 344 9.7 17.7 0.00 0.03 0.03 39 1015.4
20260506033230 10 345 11.3 17.7 0.00 0.03 0.03 38 1015.4
20260506033058 10 348 9.7 17.7 0.00 0.03 0.03 38 1015.4
20260506032737 10 345 11.3 16.1 0.00 0.03 0.03 38 1015.3
20260506032249 10 5 11.3 16.1 0.00 0.03 0.03 38 1015.3
20260506031738 10 343 11.3 16.1 0.00 0.03 0.03 38 1015.3
20260506031546 10 348 11.3 16.1 0.00 0.03 0.03 38 1015.2
20260506031224 11 360 11.3 17.7 0.00 0.03 0.03 38 1015.2
20260506030736 11 327 11.3 22.5 0.00 0.03 0.03 37 1015.2
20260506030248 11 5 16.1 22.5 0.00 0.03 0.03 37 1015.1
20260506030057 10 342 12.9 25.7 0.00 0.03 0.03 37 1015.1
20260506025732 11 355 12.9 25.7 0.00 0.03 0.03 37 1015.0
20260506025243 11 351 19.3 25.7 0.00 0.03 0.03 36 1014.9
20260506024721 11 355 19.3 25.7 0.00 0.03 0.03 36 1014.7
20260506024552 10 335 14.5 22.5 0.00 0.03 0.03 37 1014.7
20260506024254 11 345 12.9 22.5 0.00 0.03 0.03 37 1014.7
20260506023744 11 9 14.5 24.1 0.00 0.03 0.03 37 1014.7
20260506023230 11 336 16.1 24.1 0.00 0.03 0.03 37 1014.6
20260506023042 11 355 14.5 24.1 0.00 0.03 0.03 37 1014.6
20260506022744 11 345 14.5 24.1 0.00 0.03 0.03 37 1014.5
20260506022229 11 329 14.5 24.1 0.00 0.03 0.03 37 1014.4
20260506021739 11 14 16.1 24.1 0.00 0.03 0.03 37 1014.3
20260506021536 11 342 16.1 25.7 0.00 0.03 0.03 37 1014.3
20260506021247 11 5 17.7 25.7 0.00 0.03 0.03 37 1014.3
20260506020729 11 355 17.7 27.4 0.00 0.03 0.03 37 1014.3
20260506020238 11 346 17.7 29.0 0.00 0.03 0.03 36 1014.3
20260506020036 11 342 16.1 29.0 0.00 0.03 0.03 36 1014.2
20260506015749 11 343 19.3 27.4 0.00 0.03 0.03 36 1014.2
20260506015238 11 334 19.3 25.7 0.00 0.03 0.03 37 1014.0
20260506014723 11 13 16.1 22.5 0.00 0.03 0.03 37 1014.1
20260506014513 11 355 16.1 24.1 0.00 0.03 0.03 37 1014.0
20260506014237 11 335 12.9 24.1 0.00 0.03 0.03 38 1014.0
20260506013745 11 355 14.5 24.1 0.00 0.03 0.03 37 1013.9
20260506013228 11 348 14.5 29.0 0.00 0.03 0.03 37 1013.9
20260506013105 11 5 14.5 29.0 0.00 0.03 0.03 37 1013.9
20260506013006 11 355 14.5 29.0 0.00 0.03 0.03 37 1013.8
20260506012721 11 342 16.1 29.0 0.00 0.03 0.03 37 1013.9
20260506012235 12 360 19.3 27.4 0.00 0.03 0.03 36 1013.8
20260506011721 12 349 19.3 30.6 0.00 0.03 0.03 36 1013.7
20260506011517 11 320 19.3 30.6 0.00 0.03 0.03 36 1013.6
20260506011235 12 342 16.1 30.6 0.00 0.03 0.03 36 1013.7
20260506010745 12 331 17.7 30.6 0.00 0.03 0.03 36 1013.6
20260506010226 12 342 17.7 30.6 0.00 0.03 0.03 35 1013.6
20260506010041 12 360 20.9 35.4 0.00 0.03 0.03 35 1013.4
20260506005739 12 341 17.7 35.4 0.00 0.03 0.03 35 1013.5
20260506005221 12 348 19.3 35.4 0.00 0.03 0.03 35 1013.6
20260506004733 12 355 16.1 29.0 0.00 0.03 0.03 36 1013.5
20260506004525 12 333 17.7 29.0 0.00 0.03 0.03 35 1013.4
20260506004308 12 355 20.9 30.6 0.00 0.03 0.03 35 1013.4
20260506003729 12 344 22.5 33.8 0.00 0.03 0.03 35 1013.3
20260506003243 12 355 17.7 37.0 0.00 0.03 0.03 35 1013.2
20260506003011 12 360 22.5 37.0 0.00 0.03 0.03 35 1012.9
20260506002729 12 336 25.7 37.0 0.00 0.03 0.03 34 1013.2
20260506002305 12 360 19.3 35.4 0.00 0.03 0.03 35 1013.2
20260506001722 12 344 20.9 35.4 0.00 0.03 0.03 34 1013.2
20260506001549 12 313 25.7 35.4 0.00 0.03 0.03 34 1013.0
20260506001235 12 317 17.7 30.6 0.00 0.03 0.03 35 1013.3
20260506000745 12 5 22.5 30.6 0.00 0.03 0.03 34 1013.3
20260506000235 12 350 20.9 29.0 0.00 0.03 0.03 34 1013.2
20260506000011 12 333 20.9 33.8 0.00 0.03 0.03 35 1013.0
20260505235747 13 355 19.3 33.8 0.00 0.03 0.03 35 1013.1
20260505235234 13 350 22.5 33.8 0.00 0.03 0.03 34 1013.1
20260505234746 13 355 22.5 35.4 0.00 0.03 0.03 34 1013.0
20260505234532 13 5 22.5 41.8 0.00 0.03 0.03 35 1012.8
20260505234228 13 346 22.5 41.8 0.00 0.03 0.03 34 1013.0
20260505233738 13 330 30.6 41.8 0.00 0.03 0.03 34 1012.9
20260505233251 13 340 29.0 38.6 0.00 0.03 0.03 34 1012.8
20260505233027 13 327 25.7 33.8 0.00 0.03 0.03 34 1012.6
20260505232732 13 291 19.3 30.6 0.00 0.03 0.03 35 1012.7
20260505232244 13 327 19.3 27.4 0.00 0.03 0.03 35 1012.7
20260505231728 13 339 19.3 30.6 0.00 0.03 0.03 35 1012.7
20260505231519 13 338 17.7 30.6 0.00 0.03 0.03 35 1012.5
20260505231239 13 329 20.9 30.6 0.00 0.03 0.03 34 1012.6
20260505230747 13 326 16.1 30.6 0.00 0.03 0.03 34 1012.7
20260505230236 13 287 17.7 30.6 0.00 0.03 0.03 34 1012.8
20260505230042 13 355 19.3 30.6 0.00 0.03 0.03 34 1012.6
20260505225749 13 336 22.5 30.6 0.00 0.03 0.03 34 1012.8
20260505225231 13 338 19.3 29.0 0.00 0.03 0.03 35 1012.7
20260505224804 13 331 19.3 29.0 0.00 0.03 0.03 35 1012.7
20260505224532 13 355 19.3 29.0 0.00 0.03 0.03 34 1012.5
20260505224231 13 338 19.3 29.0 0.00 0.03 0.03 35 1012.7
20260505223742 14 319 16.1 27.4 0.00 0.03 0.03 35 1012.8
20260505223231 14 325 17.7 27.4 0.00 0.03 0.03 36 1012.7
20260505223021 14 292 16.1 27.4 0.00 0.03 0.03 35 1012.5
20260505222726 14 315 16.1 29.0 0.00 0.03 0.03 35 1012.7
20260505222239 14 306 17.7 29.0 0.00 0.03 0.03 35 1012.7
20260505221749 14 312 19.3 29.0 0.00 0.03 0.03 35 1012.7
20260505221530 14 326 17.7 29.0 0.00 0.03 0.03 36 1012.4
20260505221233 14 5 12.9 19.3 0.00 0.03 0.03 37 1012.7
20260505220740 14 355 11.3 19.3 0.00 0.03 0.03 36 1012.7
20260505220222 14 325 14.5 30.6 0.00 0.03 0.03 36 1012.7
20260505220033 13 290 14.5 30.6 0.00 0.03 0.03 37 1012.4
20260505215735 14 308 16.1 30.6 0.00 0.03 0.03 36 1012.7
20260505215242 14 333 19.3 29.0 0.00 0.03 0.03 36 1012.7
20260505214725 14 355 19.3 35.4 0.00 0.03 0.03 35 1012.8
20260505214558 13 314 19.3 35.4 0.00 0.03 0.03 35 1012.4
20260505214238 14 332 22.5 35.4 0.00 0.03 0.03 36 1012.8
20260505213723 14 317 17.7 30.6 0.00 0.03 0.03 36 1012.8
20260505213236 14 341 20.9 30.6 0.00 0.03 0.03 35 1012.9
20260505213056 14 331 20.9 30.6 0.00 0.03 0.03 36 1012.5
20260505212731 14 331 22.5 30.6 0.00 0.03 0.03 35 1012.8
20260505212225 15 335 12.9 30.6 0.00 0.03 0.03 38 1012.9
20260505211737 14 321 14.5 32.2 0.00 0.03 0.03 38 1013.0
20260505211545 14 5 20.9 32.2 0.00 0.03 0.03 36 1012.7
20260505211224 14 329 22.5 29.0 0.00 0.03 0.03 36 1013.0
20260505210731 15 327 20.9 29.0 0.00 0.03 0.03 36 1013.1
20260505210244 15 323 19.3 37.0 0.00 0.03 0.03 36 1013.1
20260505210058 15 346 19.3 37.0 0.00 0.03 0.03 36 1012.7
20260505205727 15 327 22.5 37.0 0.00 0.03 0.03 35 1013.0
20260505205239 15 326 22.5 33.8 0.00 0.03 0.03 35 1013.0
20260505204723 15 5 14.5 33.8 0.00 0.03 0.03 36 1013.2
20260505204605 15 319 22.5 33.8 0.00 0.03 0.03 34 1012.8
20260505204500 15 336 22.5 33.8 0.00 0.03 0.03 35 1012.7
20260505204238 15 317 19.3 33.8 0.00 0.03 0.03 37 1013.1
20260505203748 15 317 19.3 29.0 0.00 0.03 0.03 36 1013.2
20260505203229 15 342 19.3 30.6 0.00 0.03 0.03 35 1013.2
20260505203015 15 355 17.7 32.2 0.00 0.03 0.03 37 1012.8
20260505202737 15 345 19.3 32.2 0.00 0.03 0.03 35 1013.2
20260505202246 15 325 22.5 32.2 0.00 0.03 0.03 35 1013.3
20260505201731 15 336 17.7 33.8 0.00 0.03 0.03 36 1013.3